When you browse on this site, cookies collect data to enhance your experience and personalize the content and advertising you see.
Visit our Privacy Policy to learn more. By continuing to use the site, you agree to this use of cookies and data.
  • In United Kingdom
  • List of Countries
  • For 7 days
  • Water Temperature
  • Weather Map
  • Weather Widgets
  • user-avatar
    Login

    Hourly Weather Havran

    Today, 9 December, Monday

    Time Temperature Precipitation Wind Pressure Humidity
    00:00 +9°C° 0 mm 1 mps 760 mmHg 87%
    01:00 +9°C° 0 mm 1 mps 760 mmHg 87%
    02:00 +9°C° 0 mm 1 mps 760 mmHg 89%
    03:00 +8°C° 0 mm 1 mps 759 mmHg 89%
    04:00 +8°C° 0 mm 1 mps 759 mmHg 90%
    05:00 +8°C° 0 mm 1 mps 758 mmHg 90%
    06:00 +8°C° 0 mm 1 mps 758 mmHg 90%
    07:00 +8°C° 0 mm 1 mps 759 mmHg 90%
    08:00 +8°C° 0 mm 1 mps 759 mmHg 92%
    09:00 +10°C° 0 mm 1 mps 759 mmHg 82%
    10:00 +12°C° 0 mm 1 mps 758 mmHg 72%
    11:00 +13°C° 0 mm 1 mps 758 mmHg 62%
    12:00 +14°C° 0 mm 1 mps 758 mmHg 59%
    13:00 +14°C° 0 mm 1 mps 757 mmHg 55%
    14:00 +15°C° 0 mm 1 mps 757 mmHg 49%
    15:00 +13°C° 0 mm 1 mps 756 mmHg 55%
    16:00 +11°C° 0 mm 0 mps 756 mmHg 62%
    17:00 +10°C° 0 mm 0 mps 756 mmHg 68%
    18:00 +9°C° 0 mm 0 mps 756 mmHg 70%
    19:00 +9°C° 0 mm 0 mps 756 mmHg 72%
    20:00 +8°C° 0 mm 0 mps 756 mmHg 73%
    21:00 +9°C° 0 mm 1 mps 756 mmHg 74%
    22:00 +9°C° 0 mm 1 mps 756 mmHg 75%
    23:00 +9°C° 0 mm 1 mps 756 mmHg 76%

    Tomorrow, 10 December, Tuesday

    Time Temperature Precipitation Wind Pressure Humidity
    00:00 +9°C° 0 mm 1 mps 756 mmHg 76%
    01:00 +8°C° 0 mm 1 mps 756 mmHg 76%
    02:00 +8°C° 0 mm 1 mps 756 mmHg 77%
    03:00 +8°C° 0 mm 1 mps 755 mmHg 77%
    04:00 +8°C° 0 mm 1 mps 755 mmHg 77%
    05:00 +8°C° 0 mm 1 mps 755 mmHg 77%
    06:00 +8°C° 0 mm 1 mps 755 mmHg 77%
    07:00 +8°C° 0 mm 1 mps 755 mmHg 76%
    08:00 +8°C° 0 mm 1 mps 755 mmHg 76%
    09:00 +10°C° 0 mm 1 mps 755 mmHg 69%
    10:00 +12°C° 0 mm 1 mps 755 mmHg 61%
    11:00 +14°C° 0 mm 1 mps 755 mmHg 54%
    12:00 +15°C° 0 mm 1 mps 755 mmHg 51%
    13:00 +15°C° 0 mm 1 mps 755 mmHg 49%
    14:00 +16°C° 0 mm 1 mps 754 mmHg 46%
    15:00 +15°C° 0 mm 1 mps 754 mmHg 51%
    16:00 +13°C° 0 mm 1 mps 754 mmHg 56%
    17:00 +12°C° 0 mm 1 mps 754 mmHg 60%
    18:00 +11°C° 0 mm 1 mps 754 mmHg 60%
    19:00 +10°C° 0 mm 2 mps 754 mmHg 60%
    20:00 +10°C° 0 mm 2 mps 754 mmHg 60%
    21:00 +10°C° 0 mm 2 mps 754 mmHg 60%
    22:00 +10°C° 0 mm 2 mps 754 mmHg 60%
    23:00 +10°C° 0 mm 2 mps 754 mmHg 59%

    Day after tomorrow, 11 December, Wednesday

    Time Temperature Precipitation Wind Pressure Humidity
    00:00 +10°C° 0.6 mm 3 mps 754 mmHg 64%
    01:00 +10°C° 0.6 mm 3 mps 754 mmHg 68%
    02:00 +10°C° 0.6 mm 3 mps 754 mmHg 72%
    03:00 +10°C° 0.3 mm 3 mps 753 mmHg 74%
    04:00 +10°C° 0.3 mm 3 mps 753 mmHg 76%
    05:00 +10°C° 0.3 mm 3 mps 753 mmHg 78%
    06:00 +10°C° 0.6 mm 3 mps 753 mmHg 79%
    07:00 +10°C° 0.6 mm 3 mps 753 mmHg 79%
    08:00 +10°C° 0.6 mm 3 mps 753 mmHg 79%
    09:00 +10°C° 0.4 mm 3 mps 753 mmHg 78%
    10:00 +12°C° 0.4 mm 2 mps 753 mmHg 77%
    11:00 +12°C° 0.4 mm 2 mps 753 mmHg 77%
    12:00 +13°C° 0 mm 2 mps 752 mmHg 76%
    13:00 +13°C° 0 mm 2 mps 752 mmHg 75%
    14:00 +14°C° 0 mm 2 mps 752 mmHg 74%
    15:00 +13°C° 0.1 mm 2 mps 752 mmHg 77%
    16:00 +13°C° 0.1 mm 2 mps 751 mmHg 80%
    17:00 +11°C° 0.1 mm 3 mps 751 mmHg 83%
    18:00 +11°C° 0.4 mm 3 mps 751 mmHg 85%
    19:00 +11°C° 0.4 mm 3 mps 751 mmHg 87%
    20:00 +10°C° 0.4 mm 3 mps 751 mmHg 89%
    21:00 +10°C° 0.1 mm 3 mps 751 mmHg 89%
    22:00 +10°C° 0.1 mm 3 mps 751 mmHg 90%
    23:00 +10°C° 0.1 mm 2 mps 751 mmHg 91%

    12 December, Thursday

    Time Temperature Precipitation Wind Pressure Humidity
    00:00 +10°C° 0.1 mm 2 mps 750 mmHg 91%
    01:00 +10°C° 0.1 mm 2 mps 750 mmHg 91%
    02:00 +9°C° 0.1 mm 2 mps 750 mmHg 91%
    03:00 +9°C° 0.1 mm 2 mps 750 mmHg 91%
    04:00 +9°C° 0.1 mm 2 mps 749 mmHg 91%
    05:00 +9°C° 0.1 mm 2 mps 749 mmHg 91%
    06:00 +9°C° 0 mm 2 mps 750 mmHg 90%
    07:00 +9°C° 0 mm 2 mps 750 mmHg 90%
    08:00 +9°C° 0 mm 2 mps 750 mmHg 90%
    09:00 +12°C° 0 mm 1 mps 750 mmHg 83%
    10:00 +14°C° 0 mm 1 mps 750 mmHg 76%
    11:00 +16°C° 0 mm 1 mps 750 mmHg 69%
    12:00 +16°C° 0 mm 1 mps 750 mmHg 66%
    13:00 +18°C° 0 mm 1 mps 749 mmHg 63%
    14:00 +18°C° 0 mm 1 mps 749 mmHg 60%
    15:00 +16°C° 0.1 mm 1 mps 749 mmHg 67%
    16:00 +14°C° 0.1 mm 1 mps 750 mmHg 74%
    17:00 +12°C° 0.1 mm 0 mps 750 mmHg 80%
    18:00 +12°C° 0.1 mm 0 mps 750 mmHg 81%
    19:00 +11°C° 0.1 mm 0 mps 750 mmHg 82%
    20:00 +12°C° 0.1 mm 1 mps 750 mmHg 83%
    21:00 +12°C° 0 mm 1 mps 750 mmHg 84%
    22:00 +12°C° 0 mm 1 mps 750 mmHg 84%
    23:00 +12°C° 0 mm 1 mps 751 mmHg 85%

    13 December, Friday

    Time Temperature Precipitation Wind Pressure Humidity
    00:00 +12°C° 0.1 mm 1 mps 750 mmHg 85%
    01:00 +12°C° 0.1 mm 1 mps 750 mmHg 86%
    02:00 +12°C° 0.1 mm 1 mps 750 mmHg 86%
    03:00 +11°C° 0 mm 1 mps 750 mmHg 88%
    04:00 +11°C° 0 mm 1 mps 750 mmHg 89%
    05:00 +10°C° 0 mm 1 mps 750 mmHg 91%
    06:00 +11°C° 0.1 mm 1 mps 750 mmHg 91%
    07:00 +10°C° 0.1 mm 2 mps 750 mmHg 92%
    08:00 +10°C° 0.1 mm 2 mps 750 mmHg 92%
    09:00 +12°C° 0.3 mm 2 mps 750 mmHg 88%
    10:00 +13°C° 0.3 mm 2 mps 750 mmHg 83%
    11:00 +13°C° 0.3 mm 3 mps 750 mmHg 78%
    12:00 +14°C° 0.6 mm 3 mps 750 mmHg 77%
    13:00 +14°C° 0.6 mm 4 mps 749 mmHg 76%
    14:00 +14°C° 0.6 mm 4 mps 749 mmHg 74%
    15:00 +13°C° 0.5 mm 4 mps 749 mmHg 79%
    16:00 +12°C° 0.5 mm 3 mps 749 mmHg 83%
    17:00 +11°C° 0.5 mm 3 mps 749 mmHg 87%
    18:00 +11°C° 0.2 mm 3 mps 749 mmHg 88%
    19:00 +11°C° 0.2 mm 3 mps 749 mmHg 88%
    20:00 +11°C° 0.2 mm 3 mps 749 mmHg 89%
    21:00 +11°C° 0.1 mm 3 mps 749 mmHg 89%
    22:00 +10°C° 0.1 mm 3 mps 749 mmHg 90%
    23:00 +10°C° 0.1 mm 3 mps 749 mmHg 90%

    14 December, Saturday

    Time Temperature Precipitation Wind Pressure Humidity
    00:00 +10°C° 0.1 mm 3 mps 749 mmHg 90%
    01:00 +10°C° 0.1 mm 3 mps 749 mmHg 91%
    02:00 +10°C° 0.1 mm 3 mps 749 mmHg 91%
    03:00 +11°C° 0.1 mm 3 mps 748 mmHg 91%
    04:00 +11°C° 0.1 mm 4 mps 748 mmHg 90%
    05:00 +11°C° 0.1 mm 4 mps 748 mmHg 90%
    06:00 +11°C° 0.1 mm 4 mps 747 mmHg 90%
    07:00 +10°C° 0.1 mm 5 mps 747 mmHg 90%
    08:00 +10°C° 0.1 mm 5 mps 747 mmHg 90%
    09:00 +11°C° 0.2 mm 6 mps 746 mmHg 87%
    10:00 +12°C° 0.2 mm 8 mps 745 mmHg 83%
    11:00 +13°C° 0.2 mm 9 mps 745 mmHg 80%
    12:00 +12°C° 6 mm 8 mps 744 mmHg 84%
    13:00 +12°C° 6 mm 7 mps 743 mmHg 88%
    14:00 +12°C° 6 mm 5 mps 743 mmHg 92%
    15:00 +12°C° 1.5 mm 5 mps 743 mmHg 89%
    16:00 +12°C° 1.5 mm 4 mps 743 mmHg 86%
    17:00 +12°C° 1.5 mm 4 mps 744 mmHg 82%
    18:00 +11°C° 0.3 mm 3 mps 744 mmHg 84%
    19:00 +10°C° 0.3 mm 3 mps 745 mmHg 85%
    20:00 +10°C° 0.3 mm 3 mps 745 mmHg 87%
    21:00 +9°C° 0.1 mm 2 mps 746 mmHg 88%
    22:00 +9°C° 0.1 mm 2 mps 747 mmHg 89%
    23:00 +9°C° 0.1 mm 2 mps 748 mmHg 90%
    Show more